This demonstration page uses our WeatherBlox Daily Observations layout. Learn more.

Left ArrowRight Arrow

34.02893, -84.19858

Hourly Observations for April 25, 2022

Temp ( °F °C ) Dew Point ( °F °C ) Humidity (%) Winds ( mph kmh ) Pressure ( in mb ) Visibility ( mi km ) Precip ( " mm )
12:53 am 00:53 Clear 62 16.7 56 13.3 80 80 Calm 30.12 1020 10 16 0.00 0.00
1:53 am 01:53 Clear 59 15 56 13.3 90 90 Calm 30.11 1020 10 16 0.00 0.00
2:53 am 02:53 Clear 58 14.4 55 12.8 90 90 Calm 30.11 1020 10 16 0.00 0.00
3:53 am 03:53 Clear 57 13.9 55 12.8 93 93 Calm 30.11 1020 10 16 0.00 0.00
4:53 am 04:53 Clear 57 13.9 55 12.8 93 93 Calm 30.10 1019 9 14 0.00 0.00
5:53 am 05:53 Clear 58 14.4 56 13.3 93 93 SE 3 6 30.10 1019 10 16 0.00 0.00
6:53 am 06:53 Clear 59 15 57 13.9 93 93 S 3 6 30.12 1020 10 16 0.00 0.00
7:53 am 07:53 Sunny 61 16.1 59 15 93 93 SSE 3 6 30.14 1021 10 16 0.00 0.00
8:53 am 08:53 Sunny 66 18.9 60 15.6 81 81 S 6 9 30.14 1021 10 16 0.00 0.00
9:53 am 09:53 Sunny 70 21.1 62 16.7 76 76 VRB 5 7 30.16 1021 10 16 0.00 0.00
10:53 am 10:53 Sunny 74 23.3 62 16.7 67 67 SSE 7 11 30.15 1021 10 16 0.00 0.00
11:53 am 11:53 Sunny 77 25 61 16.1 58 58 Calm 30.15 1021 10 16 0.00 0.00
12:53 pm 12:53 Partly Cloudy 80 26.7 59 15 49 49 WSW 10 17 30.13 1020 10 16 0.00 0.00
1:53 pm 13:53 Partly Cloudy 79 26.1 58 14.4 49 49 WSW 10 17 30.11 1020 10 16 0.00 0.00
2:53 pm 14:53 Mostly Sunny 81 27.2 58 14.4 45 45 SSW 7 11 30.09 1019 10 16 0.00 0.00
3:53 pm 15:53 Mostly Cloudy 79 26.1 58 14.4 49 49 SSW 10 17 30.07 1018 10 16 0.00 0.00
4:53 pm 16:53 Mostly Sunny 81 27.2 59 15 47 47 undefined N/A 30.06 1018 10 16 0.00 0.00
5:53 pm 17:53 Mostly Sunny 82 27.8 57 13.9 42 42 S 8 13 30.05 1018 10 16 0.00 0.00
6:53 pm 18:53 Mostly Sunny 80 26.7 55 12.8 42 42 S 9 15 30.05 1018 10 16 0.00 0.00
7:53 pm 19:53 Sunny 76 24.4 57 13.9 52 52 SW 6 9 30.06 1018 10 16 0.00 0.00
8:53 pm 20:53 Clear 74 23.3 56 13.3 54 54 Calm 30.07 1018 10 16 0.00 0.00
9:53 pm 21:53 Clear 68 20 58 14.4 70 70 Calm 30.07 1018 10 16 0.00 0.00
10:53 pm 22:53 Clear 64 17.8 59 15 84 84 Calm 30.09 1019 10 16 0.00 0.00
11:53 pm 23:53 Clear 64 17.8 58 14.4 81 81 Calm 30.09 1019 10 16 0.00 0.00

Powered by AerisWeather